Location: Monroe
(41.9160°N, 83.3980°W)
Time: 22:35:42
(UTC-04:00)

ISS - All Passes

Search period start: 02 July 2015 00:00
Search period end: 12 July 2015 00:00
Orbit: 398 x 403 km, 51.6° (Epoch: 02 July)

Date Brightness Start Highest point End Pass type
(mag) Time Alt. Az. Time Alt. Az. Time Alt. Az.
02 Jul - 09:34:26 10° SSW 09:37:22 33° SE 09:40:21 10° ENE daylight
02 Jul - 11:10:47 10° W 11:13:46 33° NNW 11:16:46 10° NE daylight
02 Jul - 12:48:51 10° NW 12:50:53 15° N 12:52:54 10° NNE daylight
02 Jul - 14:25:46 10° NNW 14:28:11 19° NNE 14:30:37 10° ENE daylight
02 Jul - 16:01:47 10° NW 16:05:02 73° NE 16:08:15 10° ESE daylight
02 Jul - 17:39:27 10° WSW 17:41:03 13° SW 17:42:34 10° SSW daylight
03 Jul - 08:41:51 10° S 08:44:03 17° SE 08:46:19 10° E daylight
03 Jul - 10:17:00 10° WSW 10:20:12 55° NNW 10:23:24 10° NE daylight
03 Jul - 11:54:50 10° WNW 11:57:07 17° NNW 11:59:24 10° NNE daylight
03 Jul - 13:32:19 10° NNW 13:34:26 16° N 13:36:33 10° NE daylight
03 Jul - 15:08:22 10° NW 15:11:28 41° NNE 15:14:33 10° E daylight
03 Jul - 16:45:01 10° WNW 16:47:45 25° SW 16:50:26 10° SSE daylight
04 Jul - 09:23:26 10° SW 09:26:41 78° SE 09:29:56 10° ENE daylight
04 Jul - 11:00:45 10° WNW 11:03:23 22° NNW 11:06:00 10° NE daylight
04 Jul - 12:38:42 10° NW 12:40:39 15° N 12:42:35 10° NE daylight
04 Jul - 14:15:01 10° NW 14:17:50 27° NNE 14:20:40 10° E daylight
04 Jul - 15:51:13 10° WNW 15:54:22 48° SW 15:57:30 10° SE daylight
05 Jul - 08:30:12 10° SSW 08:33:14 38° SE 08:36:17 10° ENE daylight
05 Jul - 10:06:45 10° W 10:09:41 30° NNW 10:12:37 10° NE daylight
05 Jul - 11:44:50 10° NW 11:46:50 15° N 11:48:48 10° NNE daylight
05 Jul - 13:21:37 10° NW 13:24:07 20° NNE 13:26:37 10° ENE daylight
05 Jul - 14:57:39 10° NW 15:00:54 84° NE 15:04:08 10° ESE daylight
05 Jul - 16:35:50 10° WSW 16:36:53 11° SW 16:37:49 10° SSW daylight
06 Jul - 07:37:26 10° S 07:39:51 20° SE 07:42:20 10° E daylight
06 Jul - 09:12:53 10° WSW 09:16:03 49° NNW 09:19:13 10° NE daylight
06 Jul - 10:50:48 10° NW 10:53:01 17° N 10:55:14 10° NNE daylight
06 Jul - 12:28:10 10° NNW 12:30:20 16° N 12:32:31 10° NE daylight
06 Jul - 14:04:11 10° NW 14:07:19 46° NNE 14:10:28 10° ESE daylight
06 Jul - 15:40:58 10° W 15:43:33 21° SW 15:46:04 10° S daylight
07 Jul - 06:46:09 10° SE 06:46:31 10° SE 06:47:01 10° ESE daylight
07 Jul - 08:19:14 10° SW 08:22:29 90° ESE 08:25:45 10° NE daylight
07 Jul - 09:56:41 10° WNW 09:59:14 21° NNW 10:01:47 10° NE daylight
07 Jul - 11:34:32 10° NW 11:36:30 15° N 11:38:28 10° NE daylight
07 Jul - 13:10:46 10° NW 13:13:40 29° NNE 13:16:34 10° E daylight
07 Jul - 14:47:03 10° WNW 14:50:09 42° SW 14:53:12 10° SSE daylight
08 Jul - 07:25:53 10° SSW 07:28:59 44° SE 07:32:07 10° ENE daylight
08 Jul - 09:02:36 10° W 09:05:29 28° NNW 09:08:22 10° NE daylight
08 Jul - 10:40:42 10° NW 10:42:40 15° N 10:44:37 10° NE daylight
08 Jul - 12:17:22 10° NW 12:19:55 21° NNE 12:22:30 10° ENE daylight
08 Jul - 13:53:24 10° NW 13:56:39 85° SW 13:59:53 10° SE daylight
09 Jul - 06:32:57 10° S 06:35:34 23° SE 06:38:12 10° E daylight
09 Jul - 08:08:40 10° WSW 08:11:48 44° NNW 08:14:56 10° NE daylight
09 Jul - 09:46:39 10° NW 09:48:48 16° N 09:50:58 10° NNE daylight
09 Jul - 11:23:53 10° NNW 11:26:07 17° N 11:28:22 10° NE daylight
09 Jul - 12:59:53 10° NW 13:03:04 51° NNE 13:06:14 10° ESE daylight
09 Jul - 14:36:51 10° W 14:39:14 19° SW 14:41:34 10° S daylight
10 Jul - 05:40:56 10° SSE 05:42:10 12° SE 05:43:31 10° ESE daylight
10 Jul - 07:14:56 10° WSW 07:18:10 80° NW 07:21:26 10° NE daylight
10 Jul - 08:52:30 10° WNW 08:54:58 20° NNW 08:57:27 10° NE daylight
10 Jul - 10:30:16 10° NNW 10:32:15 15° N 10:34:16 10° NE daylight
10 Jul - 12:06:26 10° NW 12:09:23 31° NNE 12:12:21 10° E daylight
10 Jul - 13:42:47 10° WNW 13:45:49 36° SW 13:48:48 10° SSE daylight
11 Jul - 06:21:28 10° SW 06:24:37 52° SE 06:27:48 10° ENE daylight
11 Jul - 07:58:22 10° W 08:01:11 26° NNW 08:03:59 10° NE daylight
11 Jul - 09:36:26 10° NW 09:38:22 15° N 09:40:19 10° NE daylight
11 Jul - 11:12:59 10° NW 11:15:38 22° NNE 11:18:16 10° ENE daylight
11 Jul - 12:49:04 10° WNW 12:52:19 74° SW 12:55:31 10° SE daylight
